SWA2313 KTYS-KDCA

Flight info

Callsign SWA2313
Flight time N/A
Altitude 35000
Route VXV SITTR TRUPS5
Aircraft B738/M-SDE2E3FGHIRWXY/LB1

Departure

Time N/A
Airport McGhee Tyson Airport (KTYS)

Arrival

Time 2026-05-05 18:19
Airport Ronald Reagan Washington National Airport (KDCA)
Time Latitude Longitude Altitude Speed Heading
2026-05-05 17:46 38.47321 -79.00615 26767 ft 442 kts 76°
2026-05-05 17:47 38.47986 -78.96805 26332 ft 438 kts 76°
2026-05-05 17:47 38.48645 -78.93014 25888 ft 435 kts 76°
2026-05-05 17:47 38.49298 -78.89255 25454 ft 432 kts 76°
2026-05-05 17:47 38.49945 -78.85520 25015 ft 430 kts 76°
2026-05-05 17:48 38.50562 -78.81798 24595 ft 427 kts 78°
2026-05-05 17:48 38.51143 -78.78088 24169 ft 425 kts 78°
2026-05-05 17:48 38.51713 -78.74401 23718 ft 423 kts 78°
2026-05-05 17:48 38.52286 -78.70718 23220 ft 422 kts 78°
2026-05-05 17:49 38.52859 -78.67055 22730 ft 419 kts 78°
2026-05-05 17:49 38.53424 -78.63469 22264 ft 416 kts 78°
2026-05-05 17:49 38.54000 -78.59863 21836 ft 413 kts 78°
2026-05-05 17:49 38.54572 -78.56285 21391 ft 410 kts 78°
2026-05-05 17:50 38.55140 -78.52725 20954 ft 408 kts 78°
2026-05-05 17:50 38.55704 -78.49184 20540 ft 405 kts 78°
2026-05-05 17:50 38.56263 -78.45662 20108 ft 403 kts 78°
2026-05-05 17:50 38.56817 -78.42158 19684 ft 402 kts 78°
2026-05-05 17:51 38.57373 -78.38662 19238 ft 401 kts 78°
2026-05-05 17:51 38.57969 -78.35187 18784 ft 401 kts 77°
2026-05-05 17:51 38.58583 -78.31721 18367 ft 398 kts 77°
2026-05-05 17:51 38.59189 -78.28274 17907 ft 397 kts 77°
2026-05-05 17:52 38.59803 -78.24845 17445 ft 395 kts 75°
2026-05-05 17:52 38.60691 -78.21542 17012 ft 392 kts 66°
2026-05-05 17:52 38.61769 -78.18357 16588 ft 389 kts 65°
2026-05-05 17:52 38.62848 -78.15192 16199 ft 387 kts 66°
2026-05-05 17:53 38.63883 -78.12066 15795 ft 386 kts 67°
2026-05-05 17:53 38.64923 -78.08859 15375 ft 385 kts 67°
2026-05-05 17:53 38.65941 -78.05693 14938 ft 385 kts 68°
2026-05-05 17:53 38.66956 -78.02531 14528 ft 384 kts 68°
2026-05-05 17:54 38.67955 -77.99415 14101 ft 383 kts 68°
2026-05-05 17:54 38.68967 -77.96256 13664 ft 384 kts 68°
2026-05-05 17:54 38.69990 -77.93061 13272 ft 381 kts 68°
2026-05-05 17:54 38.70969 -77.90004 13113 ft 372 kts 68°
2026-05-05 17:55 38.71931 -77.86997 12954 ft 364 kts 68°
2026-05-05 17:55 38.72890 -77.84002 12783 ft 357 kts 66°
2026-05-05 17:55 38.74141 -77.81306 12488 ft 352 kts 47°
2026-05-05 17:55 38.75785 -77.79010 12209 ft 348 kts 44°
2026-05-05 17:56 38.77431 -77.76737 11889 ft 348 kts 45°
2026-05-05 17:56 38.79054 -77.74447 11566 ft 346 kts 46°
2026-05-05 17:56 38.80656 -77.72148 11268 ft 345 kts 46°
2026-05-05 17:56 38.82248 -77.69849 10949 ft 345 kts 46°
2026-05-05 17:57 38.83819 -77.67519 10569 ft 346 kts 47°
2026-05-05 17:57 38.85380 -77.65165 10203 ft 347 kts 48°
2026-05-05 17:57 38.86944 -77.62797 9874 ft 346 kts 48°
2026-05-05 17:57 38.88469 -77.60490 9886 ft 333 kts 48°
2026-05-05 17:58 38.89946 -77.58262 9774 ft 324 kts 48°
2026-05-05 17:58 38.91401 -77.56069 9511 ft 322 kts 48°
2026-05-05 17:58 38.92845 -77.53893 9297 ft 318 kts 48°
2026-05-05 17:58 38.94254 -77.51713 9029 ft 317 kts 54°
2026-05-05 17:59 38.95266 -77.49213 8731 ft 315 kts 69°
2026-05-05 17:59 38.96086 -77.46619 8474 ft 313 kts 69°
2026-05-05 17:59 38.96901 -77.44039 8225 ft 311 kts 69°
2026-05-05 17:59 38.97728 -77.41480 7967 ft 309 kts 69°
2026-05-05 18:00 38.98564 -77.38944 7731 ft 307 kts 69°
2026-05-05 18:00 38.99401 -77.36424 7466 ft 306 kts 68°
2026-05-05 18:00 39.00234 -77.33926 7225 ft 300 kts 68°
2026-05-05 18:00 39.01046 -77.31499 7024 ft 291 kts 69°
2026-05-05 18:01 39.01836 -77.29153 6877 ft 279 kts 68°
2026-05-05 18:01 39.02576 -77.26943 6821 ft 259 kts 71°
2026-05-05 18:01 39.02862 -77.24765 6514 ft 241 kts 104°
2026-05-05 18:01 39.02324 -77.22814 6076 ft 227 kts 128°
2026-05-05 18:02 39.01383 -77.21280 5562 ft 219 kts 145°
2026-05-05 18:02 39.00277 -77.19961 5152 ft 214 kts 144°
2026-05-05 18:02 38.99226 -77.18697 4994 ft 199 kts 144°
2026-05-05 18:02 38.98259 -77.17522 4843 ft 185 kts 143°
2026-05-05 18:03 38.97350 -77.16381 4557 ft 180 kts 143°
2026-05-05 18:03 38.96458 -77.15265 4231 ft 177 kts 145°
2026-05-05 18:03 38.95538 -77.14224 3867 ft 175 kts 147°
2026-05-05 18:03 38.94617 -77.13207 3498 ft 174 kts 147°
2026-05-05 18:04 38.93711 -77.12206 3165 ft 170 kts 147°
2026-05-05 18:04 38.92746 -77.11378 2750 ft 166 kts 158°
2026-05-05 18:04 38.91728 -77.10727 2533 ft 166 kts 159°
2026-05-05 18:04 38.90745 -77.09794 2552 ft 186 kts 133°
2026-05-05 18:05 38.90327 -77.08226 2468 ft 188 kts 96°
2026-05-05 18:05 38.90143 -77.06730 2253 ft 157 kts 133°
2026-05-05 18:05 38.89384 -77.05836 1786 ft 148 kts 148°
2026-05-05 18:05 38.88560 -77.04974 1076 ft 162 kts 152°
2026-05-05 18:06 38.87624 -77.04182 524 ft 158 kts 159°
2026-05-05 18:06 38.86946 -77.03918 281 ft 144 kts 180°
2026-05-05 18:06 38.85634 -77.03814 484 ft 149 kts 177°
2026-05-05 18:06 38.84488 -77.03682 468 ft 181 kts 178°
2026-05-05 18:07 38.83186 -77.03513 1030 ft 193 kts 175°
2026-05-05 18:07 38.81808 -77.03308 1857 ft 201 kts 175°
2026-05-05 18:07 38.80318 -77.03069 2439 ft 229 kts 175°
2026-05-05 18:07 38.78751 -77.02980 2992 ft 223 kts 194°
2026-05-05 18:08 38.77382 -77.03909 3580 ft 230 kts 225°
2026-05-05 18:08 38.76593 -77.05694 4185 ft 238 kts 254°
2026-05-05 18:08 38.76645 -77.07837 4799 ft 249 kts 283°
2026-05-05 18:08 38.77514 -77.09815 4879 ft 264 kts 308°
2026-05-05 18:09 38.78917 -77.11320 4755 ft 260 kts 318°
2026-05-05 18:09 38.80356 -77.12723 4245 ft 263 kts 317°
2026-05-05 18:09 38.81834 -77.14187 3603 ft 272 kts 317°
2026-05-05 18:09 38.83325 -77.15675 3189 ft 271 kts 317°
2026-05-05 18:10 38.84802 -77.17174 2728 ft 271 kts 317°
2026-05-05 18:10 38.86283 -77.18678 2239 ft 273 kts 317°
2026-05-05 18:10 38.87761 -77.20148 2058 ft 263 kts 317°
2026-05-05 18:10 38.89174 -77.21537 2017 ft 249 kts 317°
2026-05-05 18:11 38.90500 -77.22856 1989 ft 233 kts 317°
2026-05-05 18:11 38.91760 -77.24127 1961 ft 229 kts 317°
2026-05-05 18:11 38.93023 -77.25384 1964 ft 230 kts 317°
2026-05-05 18:11 38.94315 -77.26530 1974 ft 219 kts 322°
2026-05-05 18:12 38.95563 -77.27511 1973 ft 204 kts 324°
2026-05-05 18:12 38.96895 -77.28058 1965 ft 206 kts 358°
2026-05-05 18:12 38.98251 -77.27545 2002 ft 206 kts 27°
2026-05-05 18:12 38.99394 -77.26494 1951 ft 203 kts 55°
2026-05-05 18:13 38.99862 -77.24897 1968 ft 185 kts 98°
2026-05-05 18:13 38.99485 -77.23449 1981 ft 164 kts 140°
2026-05-05 18:13 38.98577 -77.22743 2016 ft 149 kts 163°
2026-05-05 18:13 38.97738 -77.21949 2033 ft 157 kts 136°
2026-05-05 18:14 38.97272 -77.20627 1886 ft 169 kts 112°
2026-05-05 18:14 38.97065 -77.19118 1621 ft 173 kts 104°
2026-05-05 18:14 38.96944 -77.17591 1366 ft 168 kts 104°
2026-05-05 18:14 38.96689 -77.16170 1176 ft 160 kts 114°
2026-05-05 18:15 38.96241 -77.14890 1081 ft 153 kts 129°
2026-05-05 18:15 38.95618 -77.13825 1066 ft 149 kts 144°
2026-05-05 18:15 38.94784 -77.13005 1054 ft 150 kts 152°
2026-05-05 18:15 38.93906 -77.12349 1184 ft 145 kts 159°
2026-05-05 18:16 38.93007 -77.11744 1227 ft 144 kts 155°
2026-05-05 18:16 38.92190 -77.11006 1205 ft 145 kts 151°
2026-05-05 18:16 38.91394 -77.10179 941 ft 152 kts 146°
2026-05-05 18:16 38.90719 -77.09138 821 ft 151 kts 130°
2026-05-05 18:17 38.90324 -77.07904 736 ft 155 kts 110°
2026-05-05 18:17 38.90001 -77.06574 637 ft 156 kts 128°
2026-05-05 18:17 38.89271 -77.05659 570 ft 141 kts 165°
2026-05-05 18:17 38.88425 -77.05099 492 ft 133 kts 149°
2026-05-05 18:18 38.87740 -77.04308 369 ft 131 kts 160°
2026-05-05 18:18 38.86897 -77.03961 243 ft 130 kts 180°
2026-05-05 18:18 38.86009 -77.03862 28 ft 124 kts 176°
2026-05-05 18:18 38.85254 -77.03786 22 ft 90 kts 176°
2026-05-05 18:19 38.84752 -77.03736 23 ft 57 kts 175°
2026-05-05 18:19 38.84490 -77.03710 23 ft 19 kts 176°
2026-05-05 18:19 38.84398 -77.03748 25 ft 14 kts 239°
2026-05-05 18:19 38.84388 -77.03831 26 ft 6 kts 264°
2026-05-05 18:20 38.84387 -77.03845 24 ft 0 kts 266°
2026-05-05 18:20 38.84386 -77.03863 24 ft 10 kts 266°
2026-05-05 18:20 38.84376 -77.04072 24 ft 12 kts 268°